Theta_e
322 323 323 322 322 322 323 324 324 324 325 325 325 326 326 326 326 321 313 325 328 353 348 324 321 320 319 317 329 329 312 309 315 319 321 334 332 338 341 333 337 336 336 338 342
322 322 322 322 322 322 323 323 323 324 324 324 324 325 327 327 319 315 330 349 356 349 321 319 315 318 314 314 325 319 311 315 322 324 326 332 327 334 334 333 333 335 340 342 342
320 319 318 320 321 322 322 322 323 323 323 323 324 326 327 326 311 315 342 356 357 342 322 320 317 316 312 314 316 320 313 321 324 327 330 331 332 336 331 327 331 330 334 339 341
318 318 318 318 318 320 321 322 322 322 322 323 324 327 327 318 304 320 346 356 355 332 320 315 314 312 308 308 318 315 321 323 325 329 328 329 334 330 331 330 337 335 338 338 339
317 317 317 317 318 318 320 321 321 321 321 323 325 328 318 307 312 322 351 342 325 322 317 314 313 311 308 310 314 314 319 322 327 326 325 329 330 330 327 337 338 335 336 338 338
317 317 317 317 317 318 320 320 320 320 321 323 326 329 314 305 318 325 326 326 324 319 317 315 314 315 310 309 310 314 318 319 322 323 324 324 325 327 331 337 335 331 329 336 338
317 317 317 316 317 317 319 319 319 319 321 323 328 327 313 310 320 319 318 322 323 319 315 317 317 312 311 308 315 314 310 312 316 318 319 323 317 318 333 334 331 331 327 332 338
316 316 316 316 316 317 318 318 318 320 322 325 330 318 303 317 319 320 317 317 319 318 316 318 317 313 310 313 311 309 310 306 314 315 317 313 303 314 333 331 328 329 328 327 335
316 316 316 316 316 317 317 317 319 322 324 327 314 309 303 322 314 319 318 316 315 313 316 323 315 308 309 304 300 304 299 306 310 316 314 311 305 312 332 331 328 329 328 327 331
316 315 315 315 315 315 315 316 318 320 322 324 323 306 309 309 312 316 315 315 311 312 314 311 306 303 300 300 295 299 299 303 305 310 311 307 307 310 326 330 329 330 331 330 332
315 315 314 314 314 314 310 310 304 302 309 299 299 308 311 312 315 313 315 312 311 308 301 304 301 298 302 303 304 303 299 300 304 309 309 306 305 308 314 323 323 323 330 331 332
315 314 314 314 314 314 306 306 308 310 302 309 308 310 312 309 306 310 313 308 305 301 303 301 298 305 306 305 303 302 299 299 304 308 306 304 305 308 309 316 322 322 324 330 332
314 313 313 313 313 307 303 305 311 308 301 308 309 307 306 309 306 307 311 307 304 301 300 298 304 308 305 304 301 297 297 298 299 304 305 304 301 304 308 311 314 321 325 327 330
314 313 313 313 303 306 306 306 310 310 299 304 304 310 308 307 302 312 311 309 304 303 302 301 306 306 301 301 300 296 302 303 303 298 294 301 292 300 305 308 314 318 320 325 328
314 312 312 312 304 310 313 310 304 309 292 309 305 311 304 303 302 305 310 308 303 304 301 300 302 302 301 302 303 301 306 304 303 296 294 297 294 298 304 306 308 310 317 320 328
314 312 311 308 304 308 311 310 309 297 293 304 306 303 301 299 302 307 306 308 308 303 300 302 305 304 304 306 305 305 302 300 298 294 290 294 295 299 301 305 308 315 319 317 327
312 310 310 312 307 311 308 309 297 293 306 304 303 302 299 298 301 303 302 301 298 293 292 300 302 304 306 300 303 301 295 290 290 290 290 291 296 297 308 312 317 320 324 322 325
309 308 308 312 308 310 311 304 293 303 303 306 305 302 300 301 299 301 300 298 300 297 293 292 295 303 305 302 299 299 294 290 287 287 291 294 293 301 315 320 323 326 328 328 327
307 304 305 309 312 308 308 296 297 303 308 307 302 300 298 302 301 299 299 298 301 300 295 293 296 307 309 307 303 298 295 298 292 289 290 294 299 309 318 319 323 325 327 326 330
306 309 312 314 314 312 305 298 302 308 311 306 299 302 296 299 299 296 297 302 304 303 300 299 295 302 308 308 306 303 301 294 293 288 288 293 295 297 310 315 319 321 324 328 333
310 310 317 314 314 308 300 300 307 312 309 304 303 301 302 303 299 296 298 306 309 307 304 301 298 300 303 299 297 298 296 294 293 292 290 288 294 307 313 316 316 319 324 326 329
308 309 318 314 305 299 299 305 307 309 309 306 307 305 303 303 302 302 303 306 312 309 303 303 297 294 297 303 303 300 295 294 291 290 291 291 294 314 317 318 317 320 325 328 330
302 308 317 313 298 298 301 306 308 308 307 305 305 306 304 302 299 303 306 310 311 308 303 302 295 292 295 298 301 298 298 295 292 291 290 288 292 312 311 313 315 313 323 328 327
308 307 308 307 302 300 299 302 304 311 307 308 306 305 302 302 303 301 304 309 311 311 320 309 294 294 292 294 296 295 299 296 293 289 289 291 295 306 308 309 311 312 321 325 326
307 304 305 302 303 302 301 303 305 304 306 307 306 306 302 298 299 300 303 304 308 311 305 300 294 294 295 298 298 299 299 299 294 294 292 295 294 304 310 308 310 318 321 323 323
302 302 304 303 304 300 301 301 305 306 305 304 305 306 304 300 299 299 299 298 299 303 298 297 294 297 294 300 298 297 298 299 298 302 297 303 304 311 316 318 316 318 318 318 318
306 306 306 302 301 300 300 305 306 308 308 309 309 304 301 302 304 303 303 302 301 300 298 296 294 291 288 295 296 291 295 299 303 304 303 300 302 312 311 313 312 313 315 316 318
Wind_Speed
9 10 10 11 11 11 12 12 12 13 14 14 15 15 16 17 18 2 6 11 5 6 6 7 2 5 2 4 4 3 4 1 3 5 4 8 5 1 2 5 4 3 1 10 18
10 10 10 11 11 12 12 12 12 13 14 14 15 15 14 15 4 6 14 13 6 3 5 7 10 11 6 3 3 4 4 7 4 5 6 11 10 8 6 4 3 3 3 14 20
11 11 11 12 12 12 12 12 12 13 14 14 15 14 14 9 5 7 7 7 4 2 1 1 2 2 4 4 3 5 6 4 3 4 9 12 5 8 7 3 6 12 13 19 18
12 12 12 12 13 13 13 13 12 13 14 14 15 14 16 1 2 5 6 2 4 2 2 5 4 5 2 4 3 3 4 7 5 5 6 11 7 6 10 7 11 13 18 20 20
12 12 12 12 13 13 13 13 13 13 13 13 14 13 4 2 9 7 6 7 4 1 2 2 5 3 4 5 3 2 4 5 7 7 6 7 11 7 11 2 11 17 17 19 20
13 12 12 12 13 14 13 13 13 13 13 13 13 12 2 3 3 4 4 5 3 2 2 4 4 4 4 4 5 4 5 5 6 7 4 6 3 4 5 7 14 19 17 16 20
13 12 12 12 13 13 13 13 14 13 12 11 10 3 1 13 1 7 3 4 4 3 5 4 3 3 2 4 5 4 4 2 6 7 5 6 4 8 6 11 15 15 15 16 18
13 13 12 12 13 14 14 14 15 14 11 9 6 1 8 4 5 9 2 4 6 7 6 9 2 4 2 3 7 5 4 2 4 5 4 7 10 7 12 15 13 13 14 17 18
13 13 12 12 12 13 13 16 16 12 7 5 1 1 10 9 3 7 6 3 5 3 4 3 4 3 5 5 7 7 4 3 6 7 4 4 9 5 13 15 14 13 13 16 16
13 12 11 11 11 12 14 13 8 8 2 4 3 3 5 3 4 4 3 0 2 5 8 8 6 3 5 6 2 6 5 6 4 3 4 4 13 1 10 12 14 14 13 14 17
14 12 10 9 9 9 9 2 5 3 0 8 5 3 5 7 3 3 1 3 3 6 1 4 6 5 11 6 6 6 4 9 4 3 4 8 7 11 11 15 12 11 15 16 19
15 11 9 7 7 5 2 3 4 4 5 9 5 7 6 2 4 4 3 4 2 4 2 8 6 11 4 6 6 8 6 7 6 4 4 3 9 10 6 9 19 18 15 20 15
15 11 7 5 2 2 1 6 3 5 2 6 6 6 6 8 6 7 9 3 3 2 1 5 12 7 5 15 4 4 6 3 5 6 4 5 9 6 5 6 7 10 17 15 17
16 11 6 2 2 1 4 4 9 5 5 5 4 8 5 5 4 6 8 7 1 8 5 6 6 3 4 7 5 2 2 3 4 4 3 3 6 7 7 9 5 2 9 13 14
16 11 5 2 2 3 1 5 4 4 4 3 4 1 1 8 3 4 5 5 8 6 5 9 7 5 5 6 6 7 2 3 3 2 3 4 3 10 5 7 6 4 7 7 13
15 8 3 2 1 8 7 6 4 7 2 2 4 6 5 1 2 1 4 4 2 4 3 9 4 5 8 4 3 3 4 7 5 3 4 5 5 8 5 6 5 7 8 8 12
12 7 6 2 4 4 4 4 7 4 2 3 6 5 3 5 4 4 6 7 6 3 4 6 5 5 4 2 4 7 8 5 7 7 6 3 1 2 11 7 6 6 8 6 6
16 6 7 6 1 6 4 7 1 2 6 4 4 5 6 6 4 3 5 4 3 4 2 1 9 5 1 4 4 3 6 7 3 3 6 3 4 4 6 3 6 8 7 11 14
2 1 3 5 9 2 6 4 7 6 5 3 4 5 3 3 2 3 6 4 6 9 8 5 5 6 3 3 5 1 3 3 6 2 2 4 1 2 5 10 11 12 15 12 14
1 0 4 5 9 5 6 5 5 5 6 1 3 4 6 5 6 5 5 3 6 13 5 5 1 2 6 7 7 8 3 5 5 0 3 5 5 4 3 6 6 8 10 14 14
1 2 2 5 3 6 3 7 6 6 3 2 2 2 3 2 6 4 5 3 2 6 5 5 4 5 3 5 1 6 5 5 5 4 4 2 7 6 5 1 3 3 4 9 10
1 3 2 1 5 1 3 6 5 6 3 3 4 3 0 2 5 3 3 1 5 5 4 1 6 1 2 2 3 5 3 4 6 7 2 4 8 4 6 5 4 3 3 4 6
2 2 3 3 3 2 5 5 5 5 5 2 3 3 4 4 5 4 5 6 9 5 3 3 3 4 10 7 7 7 4 2 3 3 4 3 7 3 4 7 6 3 5 4 5
3 3 4 4 1 3 2 6 4 6 3 6 3 4 5 9 9 3 5 6 5 5 10 8 3 7 8 7 4 2 3 2 3 2 3 6 6 7 4 4 3 0 4 6 5
4 0 2 2 3 3 3 3 5 5 4 8 7 5 3 4 4 5 4 7 5 9 5 6 3 2 4 3 3 5 3 1 3 5 5 7 4 5 6 4 5 7 5 8 6
3 3 5 1 3 4 2 3 4 4 5 4 7 5 5 6 4 4 1 2 2 6 3 3 1 2 2 3 0 2 2 4 1 2 7 4 3 6 6 10 12 8 6 5 6
2 2 3 3 4 2 4 1 5 1 7 4 8 5 5 3 6 6 7 4 5 3 2 3 6 4 6 2 3 3 2 4 4 3 4 2 1 4 8 8 5 5 5 6 5
Wind_Direction
334 333 332 330 328 326 327 329 329 329 328 328 327 324 326 326 314 178 262 223 170 16 325 309 11 296 114 164 136 83 60 165 194 169 142 115 111 309 48 136 101 17 270 150 145
332 331 330 327 326 326 325 325 327 328 328 327 324 323 324 331 324 282 247 259 119 30 336 4 347 349 355 335 160 106 118 219 212 175 122 149 150 164 151 183 158 132 99 140 146
331 327 325 325 324 325 324 323 326 326 326 324 322 321 319 324 338 255 273 266 106 150 182 293 272 31 358 337 197 166 164 212 218 168 140 175 170 175 138 247 216 174 156 155 148
325 319 319 318 319 320 321 321 323 324 323 322 321 321 319 233 217 255 276 327 74 42 1 357 359 7 336 340 256 157 216 170 203 219 159 157 160 204 177 219 181 161 156 155 161
320 315 314 314 313 315 317 318 319 320 319 320 320 324 331 359 252 271 315 13 16 27 34 326 357 359 348 322 337 350 217 204 176 226 219 149 186 197 202 228 142 142 159 174 174
318 313 311 311 310 310 313 314 314 313 313 315 318 318 326 278 250 328 73 6 315 343 260 195 233 246 254 290 83 250 277 230 194 229 246 165 236 149 214 125 145 156 171 179 187
319 313 310 308 307 307 309 309 307 305 306 309 313 303 332 234 21 320 338 234 198 203 299 257 166 76 272 296 253 322 327 276 227 205 240 121 298 229 152 157 161 176 181 185 194
322 314 309 307 306 305 306 303 300 297 296 295 307 271 247 246 313 304 123 284 246 236 216 257 205 199 233 296 7 4 52 3 279 167 233 117 267 241 166 161 184 183 185 192 194
325 316 308 306 305 303 300 300 293 288 275 272 296 177 269 318 261 266 155 248 299 342 295 300 65 58 8 48 9 359 318 234 304 208 130 168 255 279 178 179 185 194 188 192 202
325 315 306 303 304 303 301 286 285 305 197 201 252 351 283 284 286 261 137 204 344 356 351 33 46 21 42 66 280 291 333 300 238 292 174 213 259 185 199 196 198 197 194 198 200
332 318 305 300 301 312 338 74 29 3 16 193 204 246 293 285 263 252 206 55 39 44 277 10 47 267 250 194 207 265 228 246 259 228 213 241 264 266 191 215 209 197 203 202 210
337 325 308 298 297 321 325 174 206 201 302 219 235 276 265 219 322 298 96 133 124 244 30 8 277 259 260 182 208 226 266 285 301 323 170 222 270 269 178 214 208 199 199 208 204
343 337 316 286 325 348 198 235 246 27 93 293 184 206 212 143 206 249 141 159 174 274 193 166 248 350 333 302 296 218 215 236 223 327 337 334 308 317 266 244 225 205 201 201 192
341 334 312 312 336 218 246 248 260 131 63 267 224 269 164 176 265 207 173 144 215 212 192 235 290 252 320 262 143 268 192 236 278 59 280 63 281 314 316 315 21 212 177 191 187
337 330 289 249 294 185 189 324 137 64 84 155 214 357 140 146 224 209 192 68 191 208 103 252 290 324 310 245 196 227 20 12 354 73 9 340 74 270 335 353 341 296 242 205 189
327 324 211 165 259 242 306 320 62 42 63 217 165 171 117 263 287 102 145 66 140 167 224 249 260 218 214 256 233 39 55 39 44 51 32 258 137 286 332 316 2 16 333 221 188
314 278 197 223 224 319 296 63 41 117 319 204 198 147 136 185 248 186 156 185 184 116 335 316 276 273 185 285 358 69 50 354 3 7 232 342 58 273 326 353 114 60 347 18 149
321 203 230 240 289 356 27 51 146 256 241 293 131 91 166 165 252 145 117 208 235 85 114 113 336 347 290 181 181 35 128 149 220 241 267 314 358 312 322 29 61 57 48 45 84
123 159 267 255 199 138 70 81 215 217 273 344 72 83 322 290 216 136 201 218 209 165 178 141 277 314 353 85 105 23 3 197 108 54 10 292 212 332 354 30 39 48 59 55 114
228 158 259 146 158 79 78 237 239 219 316 356 119 169 179 224 164 164 183 227 223 187 169 190 346 287 311 44 14 97 182 24 8 261 279 294 286 230 323 36 23 38 63 87 104
81 56 275 169 95 51 164 236 276 257 27 257 150 167 211 189 196 164 182 314 5 1 124 124 107 277 46 34 23 16 14 40 113 124 163 280 268 201 195 228 79 86 75 105 131
32 59 307 178 64 23 182 210 286 282 30 304 93 65 296 47 39 97 122 42 353 163 82 55 124 76 150 305 355 88 93 107 110 294 185 157 273 254 197 209 245 103 41 66 103
82 258 349 86 131 269 285 277 253 279 243 246 114 77 36 46 78 64 28 343 2 60 101 174 29 35 346 357 7 55 360 103 108 84 239 127 268 235 275 286 61 161 119 86 95
86 75 344 48 139 158 339 283 296 300 64 82 28 63 88 20 14 57 32 17 0 51 50 78 107 154 186 200 158 73 350 82 108 113 268 230 286 275 309 30 114 306 120 123 113
29 196 183 238 279 278 187 291 308 342 51 34 18 29 107 91 30 15 360 358 27 350 42 87 122 192 233 232 192 185 183 259 208 222 185 255 265 335 329 329 188 147 109 104 102
72 46 354 229 317 321 170 356 26 356 37 10 103 33 77 113 168 175 36 30 290 346 60 3 158 178 268 229 335 220 305 253 38 346 260 78 67 352 358 59 50 35 32 57 89
318 341 108 296 339 81 324 26 350 48 19 77 146 98 72 164 192 205 196 199 201 188 184 141 139 102 248 319 334 340 247 102 108 2 246 144 338 345 38 53 43 45 27 2 13